Location: Unnamed
(42.1164°N, 2.7652°E)
Time: 08:11:28
(UTC+02:00)

X-37B - Pass Details

Date: 09 August 2021
Orbit: 381 x 393 km, 45.0° (Epoch: 29 August)

Event Time Altitude Azimuth Distance (km) Brightness Sun altitude
Exits shadow 04:13:58 32° 49° (NE) 674 2.3 -23.8°
Drops below altitude 10° 04:15:58 10° 71° (ENE) 1,397 4.1 -23.5°
Sets 04:18:04 0° 77° (ENE) 2,251 5.2 -23.3°
